Weather History for Hot Springs, VA

Change the Weather History Date:

Tuesday, October 8, 2013

  Actual Average Record
Temperature  
Mean Temperature 48 °F -  
Max Temperature 55 °F 59 °F 80 °F (2007)
Min Temperature 41 °F 44 °F 24 °F (2000)
Degree Days  
Heating Degree Days 17    
Moisture  
Dew Point 39 °F    
Average Humidity 74    
Maximum Humidity 93    
Minimum Humidity 54    
Precipitation  
Precipitation 0.00 in - - ()
Sea Level Pressure  
Sea Level Pressure 30.26 in    
Wind  
Wind Speed 8 mph (ENE)    
Max Wind Speed 15 mph    
Max Gust Speed 20 mph    
Visibility 10 miles    
Events      
Averages and records for this station are not official NWS values.
T = Trace of Precipitation, MM = Missing Value Source: NWS Daily Summary

Daily Weather History Graph

Daily Weather History Graph

Search for Another Location

Airport:

Trip Planner

Search our weather history database for the weather conditions in past years. The results will help you decide how hot, cold, wet, or windy it might be!

Date:

Astronomy

Oct. 08, 2013 Rise Set
Actual Time 7:21 AM EDT 6:51 PM EDT
Civil Twilight 6:55 AM EDT 7:17 PM EDT
Nautical Twilight 6:24 AM EDT 7:48 PM EDT
Astronomical Twilight 5:54 AM EDT 8:18 PM EDT
Moon 11:10 AM EDT (10/8) 9:30 PM EDT (10/8)
Length of Visible Light 12h 22m
Length of Day
11h 29m
Waxing Crescent, 16% of the Moon is Illuminated
Oct 8
Waxing Crescent
Oct 11
First Quarter
Oct 18
Full
Oct 26
Last Quarter
Nov 3
New

Hourly Weather History & Observations

Time (EDT) Temp. Windchill Dew Point Humidity Pressure Visibility Wind Dir Wind Speed Gust Speed Precip Events Conditions
12:15 AM 42.8 °F 37.0 °F 39.2 °F 87% 30.16 in 10.0 mi NW 10.4 mph 19.6 mph N/A   Clear
12:35 AM 42.8 °F 36.2 °F 39.2 °F 87% 30.15 in 10.0 mi NW 12.7 mph - N/A   Clear
12:55 AM 42.8 °F 35.4 °F 39.2 °F 87% 30.15 in 10.0 mi WNW 15.0 mph - N/A   Clear
1:15 AM 42.8 °F 38.6 °F 39.2 °F 87% 30.15 in 10.0 mi NW 6.9 mph - N/A   Clear
1:35 AM 42.8 °F 38.6 °F 39.2 °F 87% 30.15 in 10.0 mi NNW 6.9 mph - N/A   Clear
1:55 AM 42.8 °F 38.6 °F 39.2 °F 87% 30.16 in 10.0 mi NNW 6.9 mph - N/A   Clear
2:15 AM 41.0 °F 35.2 °F 39.2 °F 93% 30.16 in 10.0 mi NW 9.2 mph - N/A   Clear
2:35 AM 41.0 °F - 39.2 °F 93% 30.16 in 10.0 mi Calm Calm - N/A   Clear
2:55 AM 41.0 °F 39.0 °F 37.4 °F 87% 30.17 in 10.0 mi NE 3.5 mph - N/A   Clear
3:15 AM 42.8 °F 38.6 °F 37.4 °F 81% 30.17 in 10.0 mi NNE 6.9 mph - N/A   Clear
3:35 AM 42.8 °F 37.5 °F 37.4 °F 81% 30.16 in 10.0 mi North 9.2 mph - N/A   Clear
3:55 AM 42.8 °F 38.0 °F 35.6 °F 76% 30.17 in 10.0 mi North 8.1 mph 16.1 mph N/A   Clear
4:15 AM 44.6 °F 38.8 °F 35.6 °F 71% 30.17 in 10.0 mi North 11.5 mph 16.1 mph N/A   Clear
4:35 AM 44.6 °F 38.4 °F 35.6 °F 71% 30.19 in 10.0 mi North 12.7 mph 17.3 mph N/A   Clear
4:55 AM 42.8 °F 37.5 °F 35.6 °F 76% 30.19 in 10.0 mi NNE 9.2 mph 17.3 mph N/A   Clear
5:15 AM 42.8 °F 38.0 °F 35.6 °F 76% 30.20 in 10.0 mi NE 8.1 mph - N/A   Clear
5:35 AM 42.8 °F 41.1 °F 35.6 °F 76% 30.21 in 10.0 mi NNE 3.5 mph - N/A   Clear
5:55 AM 42.8 °F 38.6 °F 35.6 °F 76% 30.22 in 10.0 mi ENE 6.9 mph - N/A   Clear
6:15 AM 42.8 °F 38.6 °F 35.6 °F 76% 30.22 in 10.0 mi NE 6.9 mph - N/A   Clear
6:35 AM 42.8 °F 40.1 °F 35.6 °F 76% 30.23 in 10.0 mi ENE 4.6 mph - N/A   Clear
6:55 AM 42.8 °F 38.0 °F 35.6 °F 76% 30.24 in 10.0 mi NE 8.1 mph - N/A   Clear
7:15 AM 42.8 °F 39.3 °F 37.4 °F 81% 30.25 in 10.0 mi ENE 5.8 mph - N/A   Clear
7:35 AM 42.8 °F 36.2 °F 37.4 °F 81% 30.26 in 10.0 mi ENE 12.7 mph 18.4 mph N/A   Clear
7:55 AM 42.8 °F 38.6 °F 37.4 °F 81% 30.26 in 10.0 mi ENE 6.9 mph 16.1 mph N/A   Clear
8:15 AM 42.8 °F 37.5 °F 37.4 °F 81% 30.26 in 10.0 mi ENE 9.2 mph - N/A   Clear
8:35 AM 42.8 °F 37.5 °F 37.4 °F 81% 30.27 in 10.0 mi East 9.2 mph - N/A   Clear
8:55 AM 44.6 °F 40.2 °F 39.2 °F 81% 30.28 in 10.0 mi East 8.1 mph - N/A   Clear
9:15 AM 44.6 °F 39.2 °F 39.2 °F 81% 30.29 in 10.0 mi East 10.4 mph 17.3 mph N/A   Clear
9:35 AM 44.6 °F 38.8 °F 39.2 °F 81% 30.28 in 10.0 mi ENE 11.5 mph - N/A   Clear
9:55 AM 46.4 °F 41.5 °F 39.2 °F 76% 30.29 in 10.0 mi ENE 10.4 mph 17.3 mph N/A   Clear
10:15 AM 46.4 °F 41.9 °F 39.2 °F 76% 30.30 in 10.0 mi East 9.2 mph - N/A   Clear
10:35 AM 48.2 °F - 39.2 °F 71% 30.29 in 10.0 mi East 11.5 mph - N/A   Clear
10:55 AM 48.2 °F - 39.2 °F 71% 30.30 in 10.0 mi ENE 10.4 mph 17.3 mph N/A   Clear
11:15 AM 48.2 °F - 41.0 °F 76% 30.30 in 10.0 mi ENE 9.2 mph 18.4 mph N/A   Clear
11:35 AM 50.0 °F - 42.8 °F 76% 30.30 in 10.0 mi East 9.2 mph 17.3 mph N/A   Clear
11:55 AM 51.8 °F - 42.8 °F 71% 30.31 in 10.0 mi ENE 8.1 mph - N/A   Clear
12:15 PM 50.0 °F - 42.8 °F 76% 30.31 in 10.0 mi East 5.8 mph - N/A   Scattered Clouds
12:35 PM 51.8 °F - 44.6 °F 76% 30.31 in 10.0 mi ENE 9.2 mph - N/A   Clear
12:55 PM 53.6 °F - 42.8 °F 67% 30.31 in 10.0 mi ENE 6.9 mph - N/A   Clear
1:15 PM 53.6 °F - 42.8 °F 67% 30.30 in 10.0 mi ENE 6.9 mph - N/A   Clear
1:35 PM 53.6 °F - 42.8 °F 67% 30.29 in 10.0 mi North 5.8 mph - N/A   Clear
1:55 PM 55.4 °F - 42.8 °F 63% 30.29 in 10.0 mi NE 8.1 mph - N/A   Clear
2:15 PM 55.4 °F - 42.8 °F 63% 30.29 in 10.0 mi NE 8.1 mph - N/A   Clear
2:35 PM 55.4 °F - 42.8 °F 63% 30.29 in 10.0 mi NNE 4.6 mph - N/A   Clear
2:55 PM 55.4 °F - 41.0 °F 58% 30.29 in 10.0 mi East 5.8 mph - N/A   Clear
3:15 PM 55.4 °F - 41.0 °F 58% 30.30 in 10.0 mi East 4.6 mph - N/A   Clear
3:35 PM 55.4 °F - 39.2 °F 54% 30.30 in 10.0 mi ENE 4.6 mph - N/A   Clear
3:55 PM 53.6 °F - 39.2 °F 58% 30.30 in 10.0 mi ENE 5.8 mph - N/A   Clear
4:15 PM 55.4 °F - 39.2 °F 54% 30.30 in 10.0 mi ENE 4.6 mph - N/A   Clear
4:35 PM 55.4 °F - 39.2 °F 54% 30.29 in 10.0 mi ENE 4.6 mph - N/A   Clear
4:55 PM 53.6 °F - 39.2 °F 58% 30.29 in 10.0 mi East 4.6 mph - N/A   Clear
5:15 PM 53.6 °F - 41.0 °F 62% 30.29 in 10.0 mi NE 4.6 mph - N/A   Clear
5:35 PM 53.6 °F - 39.2 °F 58% 30.30 in 10.0 mi East 3.5 mph - N/A   Clear
5:55 PM 53.6 °F - 39.2 °F 58% 30.29 in 10.0 mi ENE 5.8 mph - N/A   Clear
6:15 PM 51.8 °F - 39.2 °F 62% 30.30 in 10.0 mi East 3.5 mph - N/A   Clear
6:35 PM 51.8 °F - 41.0 °F 67% 30.30 in 10.0 mi ESE 5.8 mph - N/A   Clear
6:55 PM 50.0 °F - 39.2 °F 66% 30.30 in 10.0 mi East 6.9 mph - N/A   Clear
7:15 PM 48.2 °F - 39.2 °F 71% 30.30 in 10.0 mi East 6.9 mph - N/A   Clear
7:35 PM 48.2 °F - 39.2 °F 71% 30.31 in 10.0 mi East 8.1 mph - N/A   Clear
7:55 PM 48.2 °F - 39.2 °F 71% 30.31 in 10.0 mi East 8.1 mph - N/A   Clear
8:15 PM 48.2 °F - 39.2 °F 71% 30.31 in 10.0 mi East 9.2 mph - N/A   Clear
8:35 PM 48.2 °F - 39.2 °F 71% 30.31 in 10.0 mi East 9.2 mph - N/A   Clear
8:55 PM 48.2 °F - 39.2 °F 71% 30.31 in 10.0 mi East 11.5 mph 16.1 mph N/A   Clear
9:15 PM 46.4 °F 41.9 °F 39.2 °F 76% 30.31 in 10.0 mi East 9.2 mph - N/A   Clear
9:35 PM 46.4 °F 41.9 °F 39.2 °F 76% 30.31 in 10.0 mi East 9.2 mph - N/A   Clear
9:55 PM 46.4 °F 41.5 °F 39.2 °F 76% 30.32 in 10.0 mi East 10.4 mph 17.3 mph N/A   Clear
10:15 PM 46.4 °F 41.5 °F 41.0 °F 81% 30.32 in 10.0 mi East 10.4 mph - N/A   Clear
10:35 PM 46.4 °F 41.5 °F 41.0 °F 81% 30.32 in 10.0 mi East 10.4 mph 16.1 mph N/A   Clear
10:55 PM 46.4 °F 41.1 °F 39.2 °F 76% 30.32 in 10.0 mi East 11.5 mph 17.3 mph N/A   Clear
11:15 PM 46.4 °F 41.5 °F 39.2 °F 76% 30.31 in 10.0 mi East 10.4 mph 17.3 mph N/A   Clear
11:35 PM 46.4 °F 41.5 °F 39.2 °F 76% 30.32 in 10.0 mi East 10.4 mph - N/A   Clear
11:55 PM 46.4 °F 41.5 °F 39.2 °F 76% 30.31 in 10.0 mi East 10.4 mph - N/A   Clear